SCP
0 0 0 0 0 0 0 0 0 0 0 0 0 0 0 0 0 0 0 0 0 0 0 0 0 0 0 0 0 0 0 0 0 0 0 0 0 0 0 0 -0 0 0 0 0 0 0
0 0 0 0 0 0 0 0 0 0 0 0 0 0 0 0 0 0 0 0 0 0 0 0 0 0 0 0 0 0 0 0 0 0 0 0 0 0 0 -0 -0 -0 -0 0 0 0 0
0 0 0 0 0 0 0 0 0 0 0 0 0 0 0 0 0 0 0 0 0 0 0 0 0 0 0 0 0 0 0 0 -0 0 0 0 0 0 0 0 0 0 -0 0 0 0 0
0 0 0 0 0 0 0 0 0 0 0 0 0 0 0 0 0 0 0 0 0 0 0 0 0 0 0 0 0 0 0 0 0 0 0 0 0 0 0 0 0 -0 0 -0 -0 -0 0
0 0 0 0 0 0 0 0 0 0 0 0 0 0 0 0 0 0 0 0 0 0 0 0 0 0 0 0 0 0 0 0 0 0 0 0 0 0 0 0 0 0 0 -0 -0 -0 -0
0 0 0 0 0 0 0 0 0 0 0 0 0 0 0 0 0 0 0 0 0 0 0 0 0 0 0 0 0 0 0 0 0 0 0 0 0 0 0 0 0 0 0 -0 0 0 -0
0 0 0 0 0 0 0 0 0 0 0 0 0 0 0 0 0 0 0 0 0 0 0 0 0 0 0 0 0 0 0 0 0 0 0 0 0 0 0 0 0 0 0 0 -0 0 0
0 0 0 0 0 0 0 0 0 0 0 0 0 0 0 0 0 0 0 0 0 0 0 0 -0 -0 0 0 0 0 0 0 0 0 0 0 0 0 0 0 0 0 0 0 0 0 0
0 0 0 0 0 0 0 0 0 0 0 0 0 0 0 0 0 0 0 0 0 0 0 0 0 0 0 0 0 0 0 0 0 0 0 0 0 0 0 0 0 0 0 0 0 0 0
0 0 0 0 0 0 0 0 0 0 0 0 0 0 0 0 0 0 0 0 0 -0 0 0 0 0 0 0 0 0 0 0 0 0 0 0 0 0 0 0 0 0 0 0 0 0 0
0 0 0 0 0 0 0 0 0 0 0 0 0 0 0 0 0 0 0 0 0 0 0 0 0 0 0 0 0 0 0 0 0 0 0 0 0 0 0 0 0 0 0 0 0 0 0
0 0 0 0 0 0 0 0 0 0 0 0 0 0 0 0 0 0 0 0 0 0 0 0 0 0 0 0 0 0 0 0 0 0 0 0 0 0 0 0 0 0 0 0 0 0 0
0 0 0 0 0 0 0 0 0 0 0 0 0 0 0 0 0 0 0 0 0 0 0 0 0 0 0 0 0 0 0 0 0 0 0 0 0 0 0 0 0 0 0 0 0 0 0
0 0 0 0 0 0 0 0 0 0 0 0 0 0 0 0 0 -0 0 0 0 0 0 0 0 0 0 0 0 0 0 0 0 0 0 0 0 0 0 0 0 0 0 0 0 0 0
0 0 0 0 0 0 0 0 0 0 0 0 0 0 0 0 0 0 0 0 0 0 0 0 0 0 0 0 0 0 0 0 0 0 0 0 0 0 0 0 0 0 0 0 0 0 0
0 0 0 0 0 0 0 0 0 0 0 0 0 0 0 0 0 0 0 0 0 0 0 0 0 0 0 0 0 0 0 0 -0 0 0 0 0 0 0 0 0 0 0 0 0 0 0
0 0 0 0 0 0 0 0 0 0 0 0 0 0 0 0 0 0 -0 0 0 0 0 0 0 0 0 -0 0 0 0 0 0 0 0 0 0 0 0 0 0 0 0 0 0 0 0
0 0 0 0 0 0 0 0 0 0 0 0 0 0 0 -0 -0 0 -0 -0 -0 0 -0 0 0 0 0 -0 0 0 0 0 0 0 0 0 0 0 0 0 0 0 0 0 0 0 0
0 0 0 0 0 0 0 0 0 0 0 0 0 0 -0 -0 0 0 -0 -0 -0 0 0 -0 -0 -0 0 0 0 0 0 0 -0 0 0 0 0 0 0 0 0 0 0 0 0 0 0
0 0 0 0 0 0 0 0 0 0 0 0 -0 -0 0 0 -0 -0 -0 0 0 0 0 0 0 0 0 0 0 0 0 0 0 -0 0 0 0 0 0 0 0 0 0 0 0 0 0
0 0 0 0 0 0 0 0 0 0 0 0 0 0 0 -0 -0 0 0 0 0 0 0 0 0 0 0 0 0 0 0 0 0 0 0 0 0 0 0 0 0 0 0 0 0 0 0
0 0 0 0 0 0 0 0 0 0 0 -0 0 -0 0 -0 -0 -0 0 0 0 0 0 0 0 0 0 0 0 0 0 0 0 0 0 0 0 0 0 0 0 0 0 0 0 0 0
0 0 0 0 0 0 -0 -0 0 0 0 -0 -0 0 0 0 -0 -0 0 0 0 0 0 -0 -0 -0 0 0 0 0 0 0 0 0 0 0 0 0 0 0 0 0 0 0 0 0 0
0 0 0 0 0 -0 -0 0 0 0 0 -0 0 0 0 0 0 0 -0 0 0 0 0 0 0 0 -0 0 -0 0 0 0 0 0 0 0 0 0 0 0 0 0 0 0 0 0 0
0 0 0 0 0 0 0 0 0 0 0 -0 -0 -0 0 0 0 0 -0 -0 0 -0 0 0 0 0 0 0 0 0 0 0 0 0 0 0 0 0 0 0 0 0 0 0 0 0 0
0 0 0 0 0 0 0 0 0 -0 -0 0 -0 -0 0 0 0 0 0 0 0 0 0 0 0 0 0 0 0 0 0 0 0 0 0 0 0 0 0 0 0 0 0 0 0 0 0
0 0 0 0 0 -0 -0 -0 0 -0 -0 -0 -0 -0 0 0 0 -0 0 0 0 0 0 0 0 0 0 0 0 0 0 0 0 0 0 0 0 0 0 0 0 0 0 0 0 0 0
0 0 0 0 -0 -0 -0 -0 -0 -0 -0 -0 0 0 0 0 0 -0 -0 0 0 0 0 0 0 0 0 0 0 0 0 0 0 0 0 0 0 0 0 0 0 0 0 0 0 0 0
0 0 0 0 0 -0 -0 0 -0 -0 -0 -0 -0 0 0 -0 0 0 0 0 0 -0 0 0 0 0 0 0 0 0 0 0 0 0 0 0 0 0 0 0 0 0 0 0 0 0 0
Wind_Speed_500mb
39 38 37 42 39 41 44 45 44 40 36 37 37 35 36 37 38 37 39 39 38 36 36 35 35 34 16 19 47 29 23 32 36 71 68 66 63 66 54 58 59 49 40 17 27 37 44
36 36 38 41 39 41 44 45 45 43 40 38 39 38 37 37 38 39 39 40 41 40 38 36 35 31 17 29 24 19 17 28 32 71 64 61 65 69 67 61 57 53 50 36 13 40 43
35 36 39 38 37 40 44 46 46 47 45 40 39 41 42 40 41 41 42 40 39 39 39 37 36 26 32 56 21 14 8 14 35 66 66 61 53 60 48 51 65 50 41 26 29 31 36
36 36 41 37 37 40 43 45 48 49 46 44 43 44 44 43 44 43 44 46 39 37 38 37 32 24 28 27 27 48 32 16 31 56 52 53 44 56 43 41 32 51 35 39 38 41 32
37 39 44 39 38 40 42 46 49 51 50 50 49 49 46 45 43 46 45 45 40 33 33 22 24 22 25 22 34 37 33 27 37 47 43 52 34 52 38 31 30 37 40 48 31 63 36
40 44 46 43 41 43 45 49 54 54 52 54 54 54 47 44 43 43 47 44 33 11 7 20 9 15 39 19 22 28 36 32 53 52 41 48 40 28 36 33 41 43 51 38 37 29 55
43 46 45 46 46 47 48 57 61 58 60 61 57 56 56 49 47 43 41 38 12 11 40 31 24 25 1 20 22 36 47 51 40 60 34 48 39 48 49 46 39 33 31 28 34 26 41
47 44 46 47 50 52 56 59 65 67 71 60 57 63 61 54 47 43 41 24 32 13 24 59 64 52 34 10 23 43 56 39 48 45 42 34 47 40 39 40 41 24 34 39 19 29 34
53 49 44 44 47 52 58 61 65 67 66 59 64 75 68 57 50 46 27 31 10 11 19 34 60 61 57 34 31 61 69 39 49 45 44 41 41 41 41 43 39 36 33 29 25 27 23
52 52 50 51 54 58 60 56 62 64 51 60 75 74 66 49 31 13 26 21 20 24 12 19 31 27 47 33 23 58 71 45 33 46 46 37 29 42 40 47 45 40 31 25 24 21 23
53 52 49 49 51 55 53 55 56 53 65 70 74 78 68 33 37 38 17 9 10 19 13 22 30 7 39 56 37 63 72 48 45 41 36 34 44 47 47 43 38 28 28 33 30 27 26
57 57 54 54 54 53 54 55 57 61 66 70 74 74 54 40 37 41 23 18 11 12 17 19 23 33 47 61 44 70 76 55 40 41 40 27 36 38 39 35 32 18 22 21 20 22 25
59 56 52 55 52 52 54 52 53 54 58 60 61 65 63 53 59 27 21 20 12 15 8 24 26 41 48 50 36 52 61 53 37 38 41 27 32 28 31 33 31 35 30 17 19 20 23
57 55 56 58 55 52 50 54 56 58 61 64 69 75 55 43 34 37 27 11 19 30 44 7 17 37 45 51 30 42 50 48 46 40 37 35 39 44 35 36 28 40 37 18 21 21 20
56 57 59 58 60 53 51 55 58 61 65 69 74 49 49 25 28 47 30 16 24 29 11 33 21 32 36 41 24 22 32 48 47 43 33 39 37 41 35 26 35 46 37 36 13 4 9
57 60 62 64 64 63 54 55 60 60 65 63 64 54 31 19 23 58 19 23 31 32 19 11 31 28 39 49 29 36 41 47 47 40 20 20 28 32 32 27 31 24 35 22 17 21 22
58 56 58 61 64 63 59 56 58 59 64 59 37 27 12 25 42 29 26 30 43 39 25 11 20 18 30 54 38 50 38 29 36 34 25 17 17 24 23 35 34 25 24 22 15 21 16
56 51 53 60 62 63 61 58 54 56 63 42 23 12 14 27 8 12 30 49 58 31 33 4 5 8 19 49 44 48 37 31 51 27 36 20 13 25 23 10 12 24 37 31 18 18 14
52 50 56 62 60 63 60 55 51 55 53 52 29 22 12 23 6 10 30 42 51 35 17 6 7 13 27 21 27 35 32 3 75 58 44 29 20 17 9 3 8 23 14 18 14 9 20
47 49 53 60 63 63 58 54 50 53 48 47 14 9 10 19 11 7 14 33 38 35 35 10 5 11 11 9 17 31 29 12 36 54 38 26 13 23 16 28 28 22 21 19 22 17 22
50 51 51 57 62 58 54 49 51 50 46 27 8 9 16 9 5 23 6 24 22 23 11 10 6 11 9 5 10 29 31 38 26 16 13 21 21 14 20 22 13 19 23 19 23 24 19
49 44 54 57 62 53 45 46 51 50 42 17 14 12 19 27 25 24 14 10 12 15 7 11 11 18 20 5 8 24 39 29 21 17 22 8 15 21 16 11 6 9 13 19 19 18 19
47 44 52 54 60 47 41 49 47 46 43 19 25 38 18 20 20 13 11 18 13 8 29 34 28 21 11 2 9 31 36 27 16 23 21 13 18 17 12 11 4 14 29 27 22 17 21
43 45 53 53 54 34 45 48 46 41 37 30 29 35 10 10 22 20 24 22 7 25 21 23 18 25 26 48 48 41 45 43 24 23 14 25 23 10 12 17 11 12 11 0 23 16 20
41 44 50 49 48 38 44 44 41 42 38 26 22 24 12 8 26 17 29 21 34 41 17 24 20 12 10 6 22 19 19 18 13 24 21 18 12 8 10 19 8 17 10 11 22 19 14
40 43 49 45 41 37 43 41 38 38 41 28 22 32 20 11 18 30 13 27 13 12 19 11 16 11 5 2 5 11 6 13 7 8 12 16 15 8 8 7 10 15 11 8 5 15 14
40 42 46 41 36 35 35 37 38 38 37 30 20 30 18 11 21 31 11 12 11 11 7 10 18 16 16 3 6 9 10 8 9 14 19 13 7 7 10 4 3 16 15 12 14 11 17
37 38 41 39 39 34 29 32 37 38 35 33 18 26 21 12 9 26 28 20 21 23 11 5 10 9 9 7 6 6 9 7 8 12 16 11 11 8 8 7 5 11 14 9 16 14 7
36 33 33 37 36 30 24 28 35 34 35 32 22 24 22 5 13 16 16 17 13 15 16 12 7 6 13 4 8 5 5 7 14 9 10 8 4 9 7 8 12 14 17 11 5 1 3
Wind_Direction_500mb
336 336 333 330 336 340 341 341 344 340 330 323 323 323 315 309 310 304 294 292 292 291 291 295 302 303 277 241 248 252 269 288 202 188 200 202 204 206 209 206 208 207 228 223 255 258 273
336 332 330 330 334 337 339 339 338 334 329 327 325 321 315 310 307 304 299 292 289 288 288 286 290 291 238 250 264 275 247 265 213 185 192 199 207 204 217 209 207 208 218 202 220 271 280
332 330 328 327 329 332 336 340 339 336 333 326 318 314 311 310 305 306 302 296 287 287 284 278 278 261 248 243 244 240 245 210 197 191 191 195 201 203 219 213 211 225 204 202 210 232 251
334 326 325 324 323 328 333 338 340 338 334 326 319 311 306 306 307 305 304 301 297 289 280 274 263 216 251 260 246 241 233 216 187 195 199 196 202 206 221 206 201 215 213 218 212 207 243
331 328 324 320 319 322 328 332 334 336 336 335 328 315 310 306 304 305 303 301 302 294 286 258 183 206 262 259 237 225 201 196 173 178 196 197 207 210 197 197 192 206 216 219 209 192 201
330 327 327 320 317 318 322 327 329 329 330 328 329 328 312 304 303 302 306 302 304 254 154 150 202 219 238 228 210 193 185 183 164 167 174 190 202 203 217 205 205 204 217 213 208 211 197
325 327 326 319 316 317 318 320 323 324 323 324 323 326 328 311 303 301 306 317 248 230 198 209 214 223 138 183 166 172 172 157 168 169 179 195 197 207 205 214 233 209 212 216 206 209 208
329 325 326 322 316 314 316 317 318 319 320 322 320 322 322 317 303 294 289 254 242 272 273 240 241 239 237 241 190 172 164 159 171 181 174 182 212 205 210 209 225 230 206 218 174 176 214
322 319 319 315 313 312 312 315 315 319 319 316 319 319 320 315 306 300 271 246 271 246 250 261 228 229 223 206 198 178 178 172 180 186 191 192 197 209 206 199 211 217 222 206 207 192 219
327 319 312 306 305 303 303 305 308 313 308 309 315 318 321 314 316 271 296 290 265 232 269 234 195 232 205 203 216 185 187 175 182 193 189 209 199 194 199 206 206 209 218 235 216 227 222
331 329 328 318 312 309 310 307 305 300 306 308 313 316 319 305 283 283 282 312 240 186 269 141 165 186 181 184 159 183 187 188 186 185 188 195 192 196 203 202 194 220 175 216 224 230 249
335 333 329 326 322 321 315 309 308 310 308 306 306 308 314 303 276 269 255 266 242 226 240 173 155 172 161 196 186 166 187 203 191 176 202 172 193 200 202 194 188 173 198 205 224 226 227
338 337 333 332 331 331 333 332 329 326 323 321 316 310 300 283 263 263 241 210 220 225 187 172 179 173 182 183 163 174 178 194 192 180 194 181 191 188 191 188 195 200 185 180 200 204 236
343 340 337 336 335 333 332 333 330 329 327 322 317 312 301 278 250 210 180 198 240 217 236 73 184 180 186 179 155 173 179 187 200 201 180 187 184 182 197 202 189 195 198 231 213 213 198
345 343 344 344 344 341 339 336 333 331 327 323 323 319 299 284 234 192 186 213 220 234 228 241 223 184 180 175 171 159 207 195 197 200 207 192 195 178 177 199 190 194 212 233 267 345 277
347 349 350 350 349 347 340 338 335 333 329 330 323 317 305 292 207 183 208 229 230 254 284 228 215 192 185 171 161 175 196 196 191 203 208 194 161 190 171 205 205 198 199 195 215 225 218
346 347 347 348 345 343 340 338 339 338 336 334 330 320 301 330 165 177 212 221 234 249 303 279 232 202 217 177 180 178 196 177 176 172 188 183 210 159 169 206 187 197 205 222 249 223 223
345 348 349 346 345 343 342 342 343 343 341 346 320 307 336 155 208 203 232 225 234 253 224 166 81 26 262 182 195 184 183 195 183 198 187 160 190 174 171 57 311 220 211 207 221 205 245
350 355 351 347 345 345 345 345 346 346 347 339 312 297 299 211 291 248 249 236 235 249 238 182 142 137 305 229 200 185 161 239 174 184 183 174 160 153 181 226 204 207 197 214 232 274 228
349 349 347 346 347 347 346 346 346 349 349 336 302 310 20 183 19 296 329 253 232 241 236 129 114 128 246 154 233 180 137 133 186 190 167 180 158 202 193 195 183 186 188 200 218 228 240
348 349 353 349 345 347 346 349 344 354 350 345 291 336 354 310 332 348 244 292 238 203 83 82 74 265 124 133 144 158 137 127 135 157 123 174 176 135 96 103 152 189 189 191 216 236 250
353 351 351 353 350 348 351 355 346 354 357 351 352 331 322 294 324 356 5 325 71 91 66 81 79 110 134 215 71 138 141 141 146 156 141 170 141 149 117 111 125 192 205 210 222 231 229
351 350 351 354 354 353 350 353 351 358 6 358 343 334 293 293 350 344 320 332 345 114 35 129 116 103 90 138 297 79 67 68 18 149 122 129 148 184 178 156 115 256 226 217 220 215 236
350 349 353 355 357 355 353 358 1 0 1 354 344 336 304 312 15 6 1 354 15 76 113 95 92 104 107 105 108 86 63 59 56 68 129 148 141 134 137 154 203 90 84 51 230 207 221
349 351 352 355 355 351 354 359 2 3 1 354 352 4 311 311 356 349 10 9 45 57 55 67 45 59 149 238 131 129 128 126 66 44 75 126 112 113 153 196 90 152 180 153 158 179 195
348 348 350 355 357 353 353 358 360 2 5 6 1 5 343 300 21 345 332 14 34 35 76 27 17 11 339 298 106 145 113 99 116 95 72 92 82 104 151 185 189 95 135 155 189 166 161
346 348 348 356 354 356 356 0 2 3 6 5 355 4 352 314 29 17 0 351 6 55 22 9 344 6 359 85 99 103 105 100 134 145 165 150 134 159 144 182 122 128 141 158 213 92 135
345 348 354 355 352 358 356 354 357 3 6 11 343 1 2 325 356 6 3 7 17 34 62 263 313 23 347 45 48 69 111 99 115 142 155 171 153 172 164 191 185 155 151 247 84 119 139
339 349 355 352 358 356 351 347 349 360 2 2 354 355 338 311 321 359 46 20 27 21 354 65 77 39 18 45 53 79 113 170 136 145 173 168 91 169 186 70 99 140 79 107 103 324 279
Wind_Speed_850mb
39 38 37 42 39 41 44 45 44 40 36 37 37 35 36 37 38 37 39 39 38 36 36 35 35 34 16 19 47 29 23 32 36 71 68 66 63 66 54 58 59 49 40 17 27 37 44
36 36 38 41 39 41 44 45 45 43 40 38 39 38 37 37 38 39 39 40 41 40 38 36 35 31 17 29 24 19 17 28 32 71 64 61 65 69 67 61 57 53 50 36 13 40 43
35 36 39 38 37 40 44 46 46 47 45 40 39 41 42 40 41 41 42 40 39 39 39 37 36 26 32 56 21 14 8 14 35 66 66 61 53 60 48 51 65 50 41 26 29 31 36
36 36 41 37 37 40 43 45 48 49 46 44 43 44 44 43 44 43 44 46 39 37 38 37 32 24 28 27 27 48 32 16 31 56 52 53 44 56 43 41 32 51 35 39 38 41 32
37 39 44 39 38 40 42 46 49 51 50 50 49 49 46 45 43 46 45 45 40 33 33 22 24 22 25 22 34 37 33 27 37 47 43 52 34 52 38 31 30 37 40 48 31 63 36
40 44 46 43 41 43 45 49 54 54 52 54 54 54 47 44 43 43 47 44 33 11 7 20 9 15 39 19 22 28 36 32 53 52 41 48 40 28 36 33 41 43 51 38 37 29 55
43 46 45 46 46 47 48 57 61 58 60 61 57 56 56 49 47 43 41 38 12 11 40 31 24 25 1 20 22 36 47 51 40 60 34 48 39 48 49 46 39 33 31 28 34 26 41
47 44 46 47 50 52 56 59 65 67 71 60 57 63 61 54 47 43 41 24 32 13 24 59 64 52 34 10 23 43 56 39 48 45 42 34 47 40 39 40 41 24 34 39 19 29 34
53 49 44 44 47 52 58 61 65 67 66 59 64 75 68 57 50 46 27 31 10 11 19 34 60 61 57 34 31 61 69 39 49 45 44 41 41 41 41 43 39 36 33 29 25 27 23
52 52 50 51 54 58 60 56 62 64 51 60 75 74 66 49 31 13 26 21 20 24 12 19 31 27 47 33 23 58 71 45 33 46 46 37 29 42 40 47 45 40 31 25 24 21 23
53 52 49 49 51 55 53 55 56 53 65 70 74 78 68 33 37 38 17 9 10 19 13 22 30 7 39 56 37 63 72 48 45 41 36 34 44 47 47 43 38 28 28 33 30 27 26
57 57 54 54 54 53 54 55 57 61 66 70 74 74 54 40 37 41 23 18 11 12 17 19 23 33 47 61 44 70 76 55 40 41 40 27 36 38 39 35 32 18 22 21 20 22 25
59 56 52 55 52 52 54 52 53 54 58 60 61 65 63 53 59 27 21 20 12 15 8 24 26 41 48 50 36 52 61 53 37 38 41 27 32 28 31 33 31 35 30 17 19 20 23
57 55 56 58 55 52 50 54 56 58 61 64 69 75 55 43 34 37 27 11 19 30 44 7 17 37 45 51 30 42 50 48 46 40 37 35 39 44 35 36 28 40 37 18 21 21 20
56 57 59 58 60 53 51 55 58 61 65 69 74 49 49 25 28 47 30 16 24 29 11 33 21 32 36 41 24 22 32 48 47 43 33 39 37 41 35 26 35 46 37 36 13 4 9
57 60 62 64 64 63 54 55 60 60 65 63 64 54 31 19 23 58 19 23 31 32 19 11 31 28 39 49 29 36 41 47 47 40 20 20 28 32 32 27 31 24 35 22 17 21 22
58 56 58 61 64 63 59 56 58 59 64 59 37 27 12 25 42 29 26 30 43 39 25 11 20 18 30 54 38 50 38 29 36 34 25 17 17 24 23 35 34 25 24 22 15 21 16
56 51 53 60 62 63 61 58 54 56 63 42 23 12 14 27 8 12 30 49 58 31 33 4 5 8 19 49 44 48 37 31 51 27 36 20 13 25 23 10 12 24 37 31 18 18 14
52 50 56 62 60 63 60 55 51 55 53 52 29 22 12 23 6 10 30 42 51 35 17 6 7 13 27 21 27 35 32 3 75 58 44 29 20 17 9 3 8 23 14 18 14 9 20
47 49 53 60 63 63 58 54 50 53 48 47 14 9 10 19 11 7 14 33 38 35 35 10 5 11 11 9 17 31 29 12 36 54 38 26 13 23 16 28 28 22 21 19 22 17 22
50 51 51 57 62 58 54 49 51 50 46 27 8 9 16 9 5 23 6 24 22 23 11 10 6 11 9 5 10 29 31 38 26 16 13 21 21 14 20 22 13 19 23 19 23 24 19
49 44 54 57 62 53 45 46 51 50 42 17 14 12 19 27 25 24 14 10 12 15 7 11 11 18 20 5 8 24 39 29 21 17 22 8 15 21 16 11 6 9 13 19 19 18 19
47 44 52 54 60 47 41 49 47 46 43 19 25 38 18 20 20 13 11 18 13 8 29 34 28 21 11 2 9 31 36 27 16 23 21 13 18 17 12 11 4 14 29 27 22 17 21
43 45 53 53 54 34 45 48 46 41 37 30 29 35 10 10 22 20 24 22 7 25 21 23 18 25 26 48 48 41 45 43 24 23 14 25 23 10 12 17 11 12 11 0 23 16 20
41 44 50 49 48 38 44 44 41 42 38 26 22 24 12 8 26 17 29 21 34 41 17 24 20 12 10 6 22 19 19 18 13 24 21 18 12 8 10 19 8 17 10 11 22 19 14
40 43 49 45 41 37 43 41 38 38 41 28 22 32 20 11 18 30 13 27 13 12 19 11 16 11 5 2 5 11 6 13 7 8 12 16 15 8 8 7 10 15 11 8 5 15 14
40 42 46 41 36 35 35 37 38 38 37 30 20 30 18 11 21 31 11 12 11 11 7 10 18 16 16 3 6 9 10 8 9 14 19 13 7 7 10 4 3 16 15 12 14 11 17
37 38 41 39 39 34 29 32 37 38 35 33 18 26 21 12 9 26 28 20 21 23 11 5 10 9 9 7 6 6 9 7 8 12 16 11 11 8 8 7 5 11 14 9 16 14 7
36 33 33 37 36 30 24 28 35 34 35 32 22 24 22 5 13 16 16 17 13 15 16 12 7 6 13 4 8 5 5 7 14 9 10 8 4 9 7 8 12 14 17 11 5 1 3
Wind_Direction_850mb
336 336 333 330 336 340 341 341 344 340 330 323 323 323 315 309 310 304 294 292 292 291 291 295 302 303 277 241 248 252 269 288 202 188 200 202 204 206 209 206 208 207 228 223 255 258 273
336 332 330 330 334 337 339 339 338 334 329 327 325 321 315 310 307 304 299 292 289 288 288 286 290 291 238 250 264 275 247 265 213 185 192 199 207 204 217 209 207 208 218 202 220 271 280
332 330 328 327 329 332 336 340 339 336 333 326 318 314 311 310 305 306 302 296 287 287 284 278 278 261 248 243 244 240 245 210 197 191 191 195 201 203 219 213 211 225 204 202 210 232 251
334 326 325 324 323 328 333 338 340 338 334 326 319 311 306 306 307 305 304 301 297 289 280 274 263 216 251 260 246 241 233 216 187 195 199 196 202 206 221 206 201 215 213 218 212 207 243
331 328 324 320 319 322 328 332 334 336 336 335 328 315 310 306 304 305 303 301 302 294 286 258 183 206 262 259 237 225 201 196 173 178 196 197 207 210 197 197 192 206 216 219 209 192 201
330 327 327 320 317 318 322 327 329 329 330 328 329 328 312 304 303 302 306 302 304 254 154 150 202 219 238 228 210 193 185 183 164 167 174 190 202 203 217 205 205 204 217 213 208 211 197
325 327 326 319 316 317 318 320 323 324 323 324 323 326 328 311 303 301 306 317 248 230 198 209 214 223 138 183 166 172 172 157 168 169 179 195 197 207 205 214 233 209 212 216 206 209 208
329 325 326 322 316 314 316 317 318 319 320 322 320 322 322 317 303 294 289 254 242 272 273 240 241 239 237 241 190 172 164 159 171 181 174 182 212 205 210 209 225 230 206 218 174 176 214
322 319 319 315 313 312 312 315 315 319 319 316 319 319 320 315 306 300 271 246 271 246 250 261 228 229 223 206 198 178 178 172 180 186 191 192 197 209 206 199 211 217 222 206 207 192 219
327 319 312 306 305 303 303 305 308 313 308 309 315 318 321 314 316 271 296 290 265 232 269 234 195 232 205 203 216 185 187 175 182 193 189 209 199 194 199 206 206 209 218 235 216 227 222
331 329 328 318 312 309 310 307 305 300 306 308 313 316 319 305 283 283 282 312 240 186 269 141 165 186 181 184 159 183 187 188 186 185 188 195 192 196 203 202 194 220 175 216 224 230 249
335 333 329 326 322 321 315 309 308 310 308 306 306 308 314 303 276 269 255 266 242 226 240 173 155 172 161 196 186 166 187 203 191 176 202 172 193 200 202 194 188 173 198 205 224 226 227
338 337 333 332 331 331 333 332 329 326 323 321 316 310 300 283 263 263 241 210 220 225 187 172 179 173 182 183 163 174 178 194 192 180 194 181 191 188 191 188 195 200 185 180 200 204 236
343 340 337 336 335 333 332 333 330 329 327 322 317 312 301 278 250 210 180 198 240 217 236 73 184 180 186 179 155 173 179 187 200 201 180 187 184 182 197 202 189 195 198 231 213 213 198
345 343 344 344 344 341 339 336 333 331 327 323 323 319 299 284 234 192 186 213 220 234 228 241 223 184 180 175 171 159 207 195 197 200 207 192 195 178 177 199 190 194 212 233 267 345 277
347 349 350 350 349 347 340 338 335 333 329 330 323 317 305 292 207 183 208 229 230 254 284 228 215 192 185 171 161 175 196 196 191 203 208 194 161 190 171 205 205 198 199 195 215 225 218
346 347 347 348 345 343 340 338 339 338 336 334 330 320 301 330 165 177 212 221 234 249 303 279 232 202 217 177 180 178 196 177 176 172 188 183 210 159 169 206 187 197 205 222 249 223 223
345 348 349 346 345 343 342 342 343 343 341 346 320 307 336 155 208 203 232 225 234 253 224 166 81 26 262 182 195 184 183 195 183 198 187 160 190 174 171 57 311 220 211 207 221 205 245
350 355 351 347 345 345 345 345 346 346 347 339 312 297 299 211 291 248 249 236 235 249 238 182 142 137 305 229 200 185 161 239 174 184 183 174 160 153 181 226 204 207 197 214 232 274 228
349 349 347 346 347 347 346 346 346 349 349 336 302 310 20 183 19 296 329 253 232 241 236 129 114 128 246 154 233 180 137 133 186 190 167 180 158 202 193 195 183 186 188 200 218 228 240
348 349 353 349 345 347 346 349 344 354 350 345 291 336 354 310 332 348 244 292 238 203 83 82 74 265 124 133 144 158 137 127 135 157 123 174 176 135 96 103 152 189 189 191 216 236 250
353 351 351 353 350 348 351 355 346 354 357 351 352 331 322 294 324 356 5 325 71 91 66 81 79 110 134 215 71 138 141 141 146 156 141 170 141 149 117 111 125 192 205 210 222 231 229
351 350 351 354 354 353 350 353 351 358 6 358 343 334 293 293 350 344 320 332 345 114 35 129 116 103 90 138 297 79 67 68 18 149 122 129 148 184 178 156 115 256 226 217 220 215 236
350 349 353 355 357 355 353 358 1 0 1 354 344 336 304 312 15 6 1 354 15 76 113 95 92 104 107 105 108 86 63 59 56 68 129 148 141 134 137 154 203 90 84 51 230 207 221
349 351 352 355 355 351 354 359 2 3 1 354 352 4 311 311 356 349 10 9 45 57 55 67 45 59 149 238 131 129 128 126 66 44 75 126 112 113 153 196 90 152 180 153 158 179 195
348 348 350 355 357 353 353 358 360 2 5 6 1 5 343 300 21 345 332 14 34 35 76 27 17 11 339 298 106 145 113 99 116 95 72 92 82 104 151 185 189 95 135 155 189 166 161
346 348 348 356 354 356 356 0 2 3 6 5 355 4 352 314 29 17 0 351 6 55 22 9 344 6 359 85 99 103 105 100 134 145 165 150 134 159 144 182 122 128 141 158 213 92 135
345 348 354 355 352 358 356 354 357 3 6 11 343 1 2 325 356 6 3 7 17 34 62 263 313 23 347 45 48 69 111 99 115 142 155 171 153 172 164 191 185 155 151 247 84 119 139
339 349 355 352 358 356 351 347 349 360 2 2 354 355 338 311 321 359 46 20 27 21 354 65 77 39 18 45 53 79 113 170 136 145 173 168 91 169 186 70 99 140 79 107 103 324 279